Location: Calgary
(51.0833°N, 114.0833°W)
Time: 00:05:46
(UTC-06:00)

Envisat - Visible Passes

Search period start: 24 September 2018 00:00
Search period end: 04 October 2018 00:00
Orbit: 764 x 766 km, 98.2° (Epoch: 23 September)

Date Brightness Start Highest point End Pass type
(mag) Time Alt. Az. Time Alt. Az. Time Alt. Az.
24 Sep 3.0 20:03:34 10° SSE 20:08:34 62° ENE 20:13:36 10° N visible
24 Sep 5.4 21:44:08 10° SW 21:48:01 22° W 21:51:57 10° NW visible
25 Sep 4.2 21:06:10 10° SSW 21:10:58 42° W 21:15:49 10° NNW visible
26 Sep 3.1 20:29:01 10° SSE 20:34:06 83° WSW 20:39:13 10° NNW visible
26 Sep 5.8 22:11:28 10° WSW 22:13:56 13° W 22:16:25 10° NW visible
27 Sep 3.2 19:52:32 10° SE 19:57:26 51° ENE 20:02:22 10° N visible
27 Sep 5.1 21:32:29 10° SSW 21:36:44 26° W 21:41:01 10° NW visible
28 Sep 3.8 20:54:47 10° S 20:59:44 52° W 21:04:43 10° NNW visible
29 Sep 3.0 20:17:51 10° SSE 20:22:56 81° ENE 20:28:02 10° NNW visible
29 Sep 5.7 21:59:24 10° SW 22:02:36 17° W 22:05:49 10° NW visible
30 Sep 3.4 19:41:33 10° SE 19:46:18 42° ENE 19:51:06 10° N visible
30 Sep 4.7 21:20:56 10° SSW 21:25:27 32° W 21:30:01 10° NNW visible
01 Oct 3.5 20:43:29 10° S 20:48:31 63° W 20:53:34 10° NNW visible
02 Oct 3.0 20:06:44 10° SSE 20:11:46 67° ENE 20:16:49 10° N visible
02 Oct 5.4 21:47:33 10° SW 21:51:17 20° W 21:55:02 10° NW visible
03 Oct 4.4 21:09:27 10° SSW 21:14:11 39° W 21:18:58 10° NNW visible
